Temp
20 20 20 20 20 19 19 20 20 20 20 20 20 20 20 20 20 20 20 20 20 21 21 21 20 20 20 20 20 21 21 21 21 21 21 21 22 22 22 21 22 22
20 20 20 20 20 20 20 20 20 20 20 20 20 20 20 20 20 20 20 20 20 20 21 21 21 21 20 20 20 21 21 21 21 21 21 21 21 21 21 21 21 21
20 20 20 20 20 20 20 20 20 20 20 20 20 20 20 20 20 20 20 20 20 20 20 21 21 21 21 21 21 21 21 21 20 21 21 21 21 21 21 21 21 21
20 20 20 20 20 20 20 20 20 20 20 20 20 20 20 20 20 21 21 20 20 20 21 21 21 21 21 21 21 21 21 21 21 21 21 21 21 21 21 21 21 21
20 20 20 20 20 20 20 20 21 21 20 20 20 20 20 20 20 21 21 20 20 20 21 21 21 21 21 21 21 21 21 21 21 21 21 21 21 21 21 21 21 21
20 20 20 20 20 20 20 20 21 21 20 21 20 20 20 20 20 20 21 20 20 20 21 21 21 21 21 21 21 21 21 21 21 21 21 21 21 21 21 21 21 21
20 20 20 20 20 20 20 20 20 21 20 20 20 20 20 20 20 20 20 20 20 20 21 21 21 21 21 21 21 21 21 21 21 21 21 21 21 21 21 21 21 21
20 20 20 20 20 20 20 20 20 20 20 20 20 20 20 20 20 20 20 20 20 21 21 21 21 21 21 21 21 21 21 21 21 21 21 21 20 21 21 21 21 21
20 20 20 20 20 20 20 20 20 20 20 20 20 20 20 20 20 20 20 20 20 20 21 21 21 20 21 21 21 21 21 21 21 21 21 20 20 21 21 21 21 21
21 21 20 20 20 20 20 20 20 20 20 20 20 20 20 20 20 20 20 20 20 20 20 21 20 20 20 20 21 21 20 20 21 21 21 20 20 20 20 20 20 20
20 20 20 20 20 20 20 20 20 20 20 20 20 20 20 20 20 20 20 20 20 20 20 20 20 20 20 20 20 20 20 20 20 20 20 20 20 20 20 20 20 21
20 20 20 21 20 20 20 20 20 20 20 20 20 20 20 20 20 20 20 20 20 20 20 20 20 20 20 20 20 20 20 20 20 20 20 20 20 20 20 20 20 21
20 20 20 21 20 20 20 20 20 20 20 20 20 20 20 20 20 20 20 20 20 20 20 20 20 20 20 20 20 20 20 20 20 20 20 20 20 20 20 20 20 20
20 20 20 20 20 20 20 20 20 20 21 21 20 20 20 20 20 20 20 20 20 20 20 20 20 20 20 20 20 20 20 20 20 20 20 20 20 20 20 20 20 20
20 20 20 20 20 20 20 20 20 20 21 21 21 21 21 21 21 20 20 20 20 20 20 20 20 20 20 20 20 20 20 20 20 20 20 20 20 20 20 20 20 20
21 20 20 20 20 20 20 20 20 20 21 21 21 21 21 21 21 21 21 20 20 20 20 20 20 20 20 20 20 20 20 20 20 20 20 20 20 20 20 20 20 20
21 21 20 20 20 20 20 21 21 21 21 21 21 21 21 21 21 21 21 21 21 21 20 20 20 20 20 20 20 20 20 20 20 20 20 20 20 20 20 20 20 20
21 21 20 20 20 20 20 21 21 21 21 21 21 21 21 21 21 21 21 21 21 21 21 20 20 21 21 21 20 20 20 20 20 20 20 20 20 20 20 20 20 20
21 21 21 20 20 20 20 21 21 21 21 21 21 21 21 21 21 21 21 21 21 21 21 21 21 21 21 21 21 21 20 20 21 21 21 20 20 20 20 20 20 20
21 20 20 20 20 20 20 21 21 21 21 21 21 21 21 21 21 21 21 21 21 21 21 21 21 21 21 21 21 21 21 21 21 21 20 20 20 20 20 20 20 20
21 20 20 20 20 20 20 20 20 21 21 21 21 21 21 21 21 21 21 21 21 21 21 21 21 21 21 21 21 21 21 21 21 21 20 20 20 20 20 20 20 20
20 20 20 20 20 20 20 20 20 20 21 21 21 21 21 21 21 21 21 21 21 21 21 21 21 21 21 20 20 21 21 21 21 21 20 20 20 20 20 20 20 20
20 20 20 20 20 20 20 20 19 20 20 20 20 20 21 21 21 21 21 21 21 21 21 21 21 21 20 20 20 20 20 20 20 20 20 20 20 20 20 20 20 20
20 20 20 20 20 20 21 20 20 19 19 20 20 20 20 20 20 20 20 20 20 20 20 20 20 20 20 20 20 20 20 19 19 20 20 20 20 20 19 19 20 19
20 19 19 19 20 20 20 20 20 19 19 19 19 19 19 19 19 20 20 20 20 20 20 20 19 19 19 19 19 19 19 19 19 19 19 19 19 19 19 19 19 19
19 19 19 19 20 20 20 20 19 18 18 18 18 19 19 19 19 19 19 19 19 19 19 18 18 18 18 18 18 18 18 18 18 19 19 19 19 19 18 18 18 19
Height
1591 1592 1593 1594 1595 1596 1597 1598 1598 1599 1600 1601 1601 1602 1603 1604 1604 1605 1606 1606 1607 1607 1608 1608 1609 1609 1610 1610 1611 1611 1611 1612 1612 1612 1613 1613 1613 1614 1614 1614 1614 1615
1590 1591 1592 1593 1594 1595 1596 1597 1598 1598 1599 1600 1601 1602 1602 1603 1603 1604 1605 1606 1606 1607 1607 1608 1608 1609 1610 1610 1610 1611 1611 1611 1612 1612 1612 1612 1613 1613 1614 1614 1614 1614
1589 1590 1591 1592 1593 1594 1594 1595 1596 1597 1598 1599 1600 1601 1601 1602 1603 1603 1604 1605 1606 1606 1607 1607 1608 1609 1609 1609 1610 1610 1610 1611 1611 1611 1612 1612 1612 1613 1613 1613 1613 1614
1588 1589 1590 1591 1592 1593 1593 1594 1595 1596 1597 1598 1599 1600 1600 1601 1602 1603 1603 1604 1605 1606 1606 1607 1608 1608 1609 1609 1609 1610 1610 1610 1610 1611 1611 1611 1612 1612 1612 1613 1613 1613
1587 1588 1589 1590 1591 1592 1592 1593 1594 1595 1595 1597 1598 1599 1599 1600 1601 1602 1603 1603 1604 1605 1606 1606 1607 1607 1608 1608 1609 1609 1609 1610 1610 1610 1611 1611 1611 1611 1611 1612 1612 1612
1586 1587 1588 1589 1590 1591 1591 1592 1593 1594 1595 1596 1597 1598 1598 1599 1600 1601 1602 1603 1603 1604 1605 1605 1606 1607 1607 1608 1608 1609 1609 1609 1609 1609 1610 1610 1610 1610 1610 1611 1611 1611
1585 1586 1587 1588 1589 1590 1591 1591 1592 1593 1594 1595 1596 1597 1597 1598 1599 1600 1601 1602 1602 1603 1604 1605 1605 1606 1606 1607 1607 1608 1608 1608 1608 1608 1609 1609 1609 1609 1609 1610 1610 1610
1584 1585 1586 1587 1588 1589 1590 1590 1591 1592 1593 1594 1594 1595 1596 1597 1598 1599 1600 1601 1601 1602 1603 1603 1604 1605 1605 1606 1606 1607 1607 1607 1608 1608 1608 1608 1608 1609 1609 1609 1609 1609
1584 1584 1586 1587 1587 1588 1589 1590 1591 1591 1592 1593 1593 1594 1595 1596 1597 1598 1599 1599 1600 1601 1601 1602 1603 1604 1604 1605 1605 1606 1606 1606 1607 1607 1607 1608 1608 1608 1608 1608 1608 1608
1583 1584 1585 1586 1586 1588 1588 1589 1590 1591 1591 1592 1592 1593 1594 1595 1596 1596 1597 1598 1599 1600 1600 1601 1602 1603 1603 1604 1604 1605 1605 1605 1606 1606 1606 1607 1607 1607 1607 1607 1607 1607
1582 1583 1584 1585 1586 1587 1588 1589 1590 1590 1591 1591 1592 1592 1593 1594 1595 1595 1596 1597 1598 1598 1599 1600 1601 1601 1602 1603 1603 1604 1604 1605 1605 1605 1606 1606 1606 1606 1606 1607 1607 1606
1581 1582 1583 1584 1585 1586 1587 1588 1589 1589 1590 1591 1591 1592 1592 1593 1594 1595 1595 1596 1597 1598 1598 1599 1599 1600 1601 1601 1602 1602 1603 1604 1604 1604 1605 1605 1605 1605 1606 1606 1606 1606
1579 1581 1582 1583 1585 1585 1587 1587 1588 1589 1589 1590 1591 1591 1592 1592 1593 1594 1594 1595 1596 1597 1597 1598 1598 1599 1599 1600 1601 1601 1602 1602 1603 1603 1604 1604 1605 1605 1605 1605 1605 1605
1578 1580 1581 1583 1584 1585 1586 1587 1587 1588 1588 1589 1590 1590 1591 1591 1592 1593 1593 1594 1595 1596 1596 1597 1597 1597 1598 1599 1599 1600 1600 1601 1601 1602 1602 1603 1603 1604 1604 1604 1604 1604
1578 1579 1581 1582 1583 1584 1585 1586 1587 1588 1588 1588 1589 1589 1590 1590 1591 1591 1592 1593 1594 1594 1595 1595 1596 1596 1597 1597 1598 1598 1599 1599 1600 1600 1601 1601 1602 1602 1603 1603 1603 1603
1577 1578 1580 1581 1582 1584 1585 1585 1586 1587 1587 1588 1588 1588 1588 1588 1589 1590 1590 1591 1592 1593 1594 1594 1595 1595 1595 1596 1596 1597 1597 1598 1598 1599 1599 1600 1601 1601 1601 1601 1601 1601
1575 1577 1579 1580 1582 1583 1584 1585 1585 1585 1586 1587 1587 1587 1587 1587 1588 1588 1588 1589 1590 1591 1592 1593 1593 1594 1594 1594 1595 1595 1596 1596 1596 1597 1597 1598 1599 1599 1599 1599 1599 1600
1574 1576 1577 1579 1581 1582 1583 1583 1584 1584 1584 1585 1585 1585 1585 1586 1586 1587 1587 1588 1588 1589 1590 1590 1591 1592 1592 1593 1593 1594 1594 1594 1595 1595 1595 1596 1597 1597 1597 1597 1597 1598
1573 1575 1577 1579 1580 1581 1582 1582 1582 1582 1582 1583 1583 1583 1583 1584 1584 1585 1585 1586 1586 1587 1587 1588 1589 1590 1590 1591 1592 1592 1593 1593 1593 1593 1593 1594 1594 1594 1595 1595 1595 1595
1571 1573 1574 1576 1578 1580 1581 1582 1582 1582 1582 1582 1581 1581 1581 1582 1582 1583 1583 1584 1584 1585 1585 1585 1586 1587 1588 1589 1590 1590 1591 1591 1591 1591 1591 1591 1591 1592 1592 1592 1593 1593
1567 1569 1571 1572 1574 1577 1579 1581 1581 1581 1581 1581 1580 1580 1580 1580 1580 1581 1581 1581 1582 1582 1583 1583 1584 1585 1585 1586 1587 1588 1588 1589 1589 1589 1589 1589 1589 1589 1590 1590 1590 1590
1565 1568 1569 1570 1573 1576 1577 1578 1579 1580 1580 1579 1579 1579 1579 1579 1579 1579 1579 1579 1579 1580 1580 1581 1581 1582 1582 1583 1584 1585 1586 1586 1586 1587 1587 1586 1586 1587 1587 1587 1587 1588
1564 1566 1567 1568 1570 1573 1574 1576 1577 1578 1578 1578 1577 1577 1577 1578 1578 1578 1577 1577 1577 1577 1578 1579 1579 1579 1579 1580 1581 1582 1583 1583 1584 1584 1584 1584 1584 1584 1584 1584 1585 1585
1562 1563 1564 1566 1567 1568 1569 1571 1574 1575 1576 1575 1575 1575 1575 1575 1575 1574 1575 1575 1574 1575 1575 1575 1576 1576 1576 1577 1578 1578 1579 1580 1581 1581 1581 1581 1581 1581 1581 1582 1582 1582
1558 1559 1561 1563 1564 1565 1566 1567 1569 1570 1571 1571 1572 1572 1572 1572 1572 1571 1571 1571 1571 1571 1571 1572 1572 1572 1573 1574 1574 1575 1576 1576 1577 1578 1578 1578 1578 1578 1578 1578 1579 1579
1555 1557 1558 1560 1561 1562 1563 1564 1564 1565 1566 1567 1568 1568 1569 1569 1569 1568 1568 1568 1568 1568 1568 1568 1568 1568 1569 1570 1571 1571 1572 1573 1575 1575 1575 1575 1574 1573 1574 1574 1575 1575
Wind_Speed
20 20 18 17 16 17 18 18 15 14 14 14 15 14 13 12 12 12 12 13 12 12 12 11 10 9 8 7 7 8 8 7 7 8 9 9 10 10 9 8 8 7
21 20 18 17 17 17 17 16 15 14 14 14 14 14 12 12 13 12 12 13 12 11 10 10 9 9 8 8 8 8 8 7 7 8 8 8 8 8 8 9 9 8
21 20 18 18 17 17 16 16 15 15 14 14 14 13 13 12 13 13 13 14 12 11 10 9 9 10 9 9 9 9 8 7 8 7 6 7 7 7 7 8 8 8
22 19 17 17 17 17 16 16 16 16 15 15 15 14 13 13 13 13 13 13 12 11 11 11 10 10 10 9 9 9 8 8 8 7 6 6 6 6 6 7 8 8
21 19 18 17 16 17 17 16 16 16 16 15 15 15 14 13 13 14 12 12 12 11 12 12 11 11 11 10 10 9 9 8 8 7 6 5 6 6 7 7 8 8
21 20 19 18 17 17 17 16 16 16 16 15 15 15 15 14 14 14 12 11 11 12 12 12 12 11 11 11 11 10 9 9 9 8 7 7 7 7 8 8 8 9
22 21 20 18 18 18 17 16 16 15 15 15 15 14 14 14 14 14 13 12 12 12 12 11 11 11 11 11 10 10 10 9 9 9 8 8 8 9 9 8 9 9
23 22 21 19 19 18 17 16 16 15 15 15 15 14 13 14 14 13 13 13 13 13 12 12 11 10 11 11 10 10 11 10 10 9 8 7 7 8 7 8 8 9
23 22 22 21 20 19 18 17 16 16 15 15 15 14 14 14 13 12 12 12 13 13 13 12 11 11 11 11 10 11 11 10 10 9 8 8 7 6 6 7 8 7
22 21 21 22 22 20 19 18 17 16 15 15 14 14 13 13 13 12 11 11 12 12 13 13 11 10 10 9 9 10 10 10 10 9 10 10 8 6 6 6 7 6
22 21 21 22 22 20 20 19 18 17 16 15 14 13 13 12 13 13 12 12 11 10 12 13 11 9 9 9 9 9 9 9 9 9 10 10 8 7 7 7 7 6
22 20 21 22 22 21 20 19 19 18 17 16 14 13 13 13 13 13 12 12 11 9 9 11 10 9 9 9 9 9 9 9 8 8 8 9 9 9 8 7 6 4
23 21 21 21 21 21 20 20 20 19 17 16 15 14 14 14 13 12 12 12 11 10 9 10 11 11 12 11 11 11 11 11 9 8 8 8 8 8 6 4 3 3
25 23 21 20 20 20 20 19 18 17 16 15 15 15 15 14 13 13 13 12 13 13 12 12 12 13 13 13 12 12 12 12 11 10 10 9 8 7 6 5 5 6
24 23 22 20 18 17 19 19 18 16 15 14 14 14 14 14 14 15 15 14 14 15 15 14 14 13 13 12 12 11 11 12 12 12 12 11 9 8 7 8 9 9
21 21 21 21 20 17 17 18 19 19 18 17 15 14 13 14 15 16 16 15 16 16 16 16 15 14 13 12 12 11 11 11 12 13 13 12 10 8 8 9 11 11
20 21 21 20 20 20 18 18 21 22 21 20 19 18 17 16 16 16 16 16 15 15 16 17 16 14 12 12 12 12 12 11 11 11 11 12 12 11 10 12 12 13
20 20 22 22 22 23 22 21 22 24 23 21 21 22 22 21 20 18 16 15 15 14 15 16 16 14 12 12 13 13 13 13 12 11 10 11 12 13 14 15 15 15
22 21 22 24 25 26 26 24 24 26 26 24 22 22 24 24 23 21 18 17 16 17 17 17 16 16 15 15 14 14 14 14 14 13 12 12 14 15 16 15 15 15
26 25 24 25 27 28 29 27 25 26 27 26 23 21 23 25 25 23 22 20 20 20 19 18 17 16 17 17 17 16 16 16 16 15 16 16 17 18 18 17 16 16
29 29 28 28 27 29 30 29 27 27 28 28 25 21 21 24 26 26 24 23 22 21 20 20 19 18 18 18 17 17 17 18 18 18 19 20 20 21 22 22 21 20
29 29 30 29 27 28 30 30 28 29 30 29 28 25 23 24 25 26 26 25 25 24 24 23 23 22 22 21 20 19 19 19 19 19 21 22 23 24 25 24 24 23
29 30 31 30 28 29 31 31 29 30 31 31 30 28 27 27 26 26 26 26 26 26 26 26 26 26 26 25 24 23 22 21 21 20 21 22 23 25 26 26 25 24
30 32 33 32 30 30 31 31 31 31 32 32 31 30 29 29 30 29 29 29 28 28 28 27 27 28 28 27 26 25 24 23 22 21 21 22 23 24 24 25 24 24
33 34 35 33 32 32 32 33 34 33 33 32 32 31 29 28 29 29 29 29 29 29 29 29 29 28 28 28 27 26 25 24 22 22 22 22 23 24 24 23 23 22
30 31 31 30 30 30 32 35 35 33 30 29 28 28 27 27 28 28 28 28 28 27 28 28 28 27 27 27 26 26 26 24 23 23 23 24 25 25 24 24 24 23
Wind_Direction
201 202 203 204 205 206 210 214 215 215 213 212 214 214 210 207 206 203 202 203 203 209 209 199 202 213 213 214 211 204 201 198 202 211 213 213 214 218 218 216 217 213
203 206 205 205 205 205 209 213 213 212 212 215 214 214 214 211 209 206 204 205 205 210 212 203 202 209 214 217 215 210 204 202 208 211 211 212 212 216 220 222 227 226
204 207 206 206 206 204 205 209 210 208 211 215 213 210 211 211 212 210 205 204 208 212 213 211 207 208 212 214 216 214 207 209 218 216 212 216 217 218 221 221 222 221
203 207 207 207 205 203 204 207 207 206 208 212 212 209 208 211 217 217 210 206 211 216 216 216 217 218 218 215 215 218 214 213 221 221 215 220 225 224 222 219 219 226
201 204 205 207 207 204 204 206 206 204 206 208 209 210 209 209 216 221 218 212 214 221 221 218 220 225 227 223 219 222 221 220 225 228 223 227 235 233 231 229 227 237
202 202 203 206 207 204 204 206 207 206 205 206 207 209 209 209 214 221 224 220 218 222 223 221 223 227 230 229 224 223 224 226 231 234 232 234 242 242 240 242 241 243
203 203 203 204 206 207 206 205 208 206 205 208 207 206 209 212 215 218 222 224 222 223 226 225 225 228 230 230 228 226 226 228 233 238 241 241 246 248 246 250 257 257
205 204 206 207 207 209 208 206 208 207 207 209 208 206 210 216 218 216 217 222 223 225 227 225 224 227 227 227 227 226 227 230 233 239 243 241 241 244 246 253 261 265
206 206 208 210 211 209 209 209 209 209 210 210 208 210 213 216 219 216 214 219 222 224 226 225 224 224 223 224 225 224 228 232 235 236 235 233 232 239 253 258 256 262
209 209 209 211 214 211 208 209 209 210 210 207 207 211 215 217 218 217 218 220 219 219 223 222 219 219 222 225 227 228 228 231 236 238 238 238 238 244 259 257 246 248
210 211 211 213 215 212 208 209 209 209 207 204 205 212 218 219 217 219 222 218 214 216 221 218 213 218 228 233 235 233 226 225 232 240 246 250 249 252 264 266 258 252
210 212 215 215 215 212 209 207 206 206 207 207 209 214 220 220 216 220 224 216 210 217 231 229 222 223 234 239 240 238 232 227 226 235 246 255 260 263 270 274 267 255
211 215 218 216 215 213 210 207 207 210 211 211 212 214 217 218 216 218 223 221 216 221 237 243 237 234 238 241 241 242 239 231 226 234 247 253 256 256 253 250 252 256
212 218 221 217 215 213 207 204 209 217 216 211 213 216 218 220 221 221 222 222 223 226 233 240 241 239 238 239 241 243 242 237 231 235 247 251 247 244 239 239 252 267
216 220 222 219 216 213 208 205 210 218 218 213 214 221 222 222 224 226 225 225 228 231 234 239 242 239 234 233 236 238 240 241 239 239 246 251 247 243 244 248 257 266
221 220 220 218 215 215 217 216 216 221 226 225 223 223 224 223 224 227 228 228 231 235 239 242 241 238 235 235 236 236 237 239 242 244 247 250 246 242 244 247 252 258
226 223 218 216 216 218 222 223 223 226 231 232 230 227 224 223 222 224 226 226 228 233 237 237 236 235 238 239 240 240 237 231 230 234 240 243 243 243 246 247 248 252
228 226 219 215 217 222 224 223 224 228 230 229 229 228 227 226 223 221 222 222 223 225 227 229 232 236 237 239 242 243 240 231 225 225 231 234 236 241 249 253 256 255
226 228 224 220 221 224 225 224 224 229 231 231 230 228 225 224 223 220 219 220 222 224 225 227 232 236 237 240 245 245 240 235 231 233 235 232 231 239 249 258 262 258
220 220 219 221 224 226 228 228 228 230 233 234 233 230 224 220 219 219 218 221 225 228 229 229 231 234 236 240 244 244 240 238 238 240 240 236 234 239 249 259 263 262
221 220 220 218 218 223 229 231 232 233 234 234 232 228 223 219 218 219 219 221 226 229 230 233 235 237 238 239 242 242 240 239 239 242 244 243 241 242 249 256 262 265
224 225 227 224 219 221 228 232 234 235 236 236 234 230 225 221 219 221 223 225 228 230 233 238 241 242 242 242 242 241 241 239 239 242 245 246 245 246 249 255 260 264
229 230 231 231 227 226 229 233 236 239 239 237 237 235 231 228 226 227 229 230 232 235 238 241 245 246 246 246 246 246 246 247 246 246 247 247 247 247 249 252 257 262
231 232 232 232 230 229 233 236 237 241 242 240 239 238 235 234 232 232 233 235 237 239 241 243 245 246 246 247 249 250 251 251 250 249 248 246 245 245 247 251 256 263
233 234 234 235 234 233 235 237 238 239 241 240 240 239 237 236 236 236 236 238 239 241 243 244 244 244 244 245 247 249 250 250 251 251 249 247 246 247 249 252 257 263
234 234 236 239 239 239 239 238 237 237 237 237 236 236 235 236 238 238 239 239 240 241 242 243 241 241 242 244 246 248 248 246 247 249 251 252 252 250 250 252 256 259